TimeCDT,TemperatureF,Dew PointF,Humidity,Sea Level PressureIn,VisibilityMPH,Wind Direction,Wind SpeedMPH,Gust SpeedMPH,PrecipitationIn,Events,Conditions,WindDirDegrees,DateUTC
12:15 AM,48.2,33.8,58,30.21,10.0,North,4.6,-,N/A,,Overcast,10,2012-10-07 05:15:00
12:35 AM,48.2,33.8,58,30.23,10.0,North,6.9,-,N/A,,Overcast,350,2012-10-07 05:35:00
12:55 AM,46.4,33.8,62,30.21,10.0,North,9.2,-,N/A,,Overcast,360,2012-10-07 05:55:00
1:15 AM,46.4,33.8,62,30.22,10.0,North,9.2,-,N/A,,Overcast,360,2012-10-07 06:15:00
1:36 AM,46.4,33.8,62,30.22,10.0,North,6.9,-,N/A,,Overcast,360,2012-10-07 06:36:00
1:55 AM,46.4,33.8,62,30.21,10.0,North,10.4,-,N/A,,Overcast,10,2012-10-07 06:55:00
2:15 AM,46.4,33.8,62,30.21,10.0,North,9.2,-,N/A,,Overcast,10,2012-10-07 07:15:00
2:35 AM,46.4,33.8,62,30.21,10.0,North,9.2,-,N/A,,Overcast,360,2012-10-07 07:35:00
2:55 AM,46.4,33.8,62,30.21,10.0,North,8.1,-,N/A,,Overcast,350,2012-10-07 07:55:00
3:15 AM,46.4,33.8,62,30.21,10.0,North,5.8,-,N/A,,Overcast,350,2012-10-07 08:15:00
3:35 AM,46.4,33.8,62,30.21,10.0,North,11.5,-,N/A,,Overcast,360,2012-10-07 08:35:00
3:55 AM,46.4,33.8,62,30.22,10.0,North,8.1,-,N/A,,Overcast,360,2012-10-07 08:55:00
4:15 AM,44.6,33.8,66,30.23,10.0,NNW,5.8,-,N/A,,Overcast,340,2012-10-07 09:15:00
4:35 AM,44.6,33.8,66,30.23,10.0,NNW,4.6,-,N/A,,Mostly Cloudy,340,2012-10-07 09:35:00
4:55 AM,44.6,33.8,66,30.23,10.0,Calm,Calm,-,N/A,,Mostly Cloudy,0,2012-10-07 09:55:00
5:15 AM,42.8,33.8,70,30.24,10.0,NW,3.5,-,N/A,,Partly Cloudy,320,2012-10-07 10:15:00
5:35 AM,42.8,33.8,70,30.24,10.0,Calm,Calm,-,N/A,,Clear,0,2012-10-07 10:35:00
5:56 AM,42.8,33.8,70,30.24,10.0,Calm,Calm,-,N/A,,Clear,0,2012-10-07 10:56:00
6:15 AM,42.8,33.8,70,30.25,10.0,NW,3.5,-,N/A,,Scattered Clouds,310,2012-10-07 11:15:00
6:35 AM,42.8,33.8,70,30.25,10.0,Calm,Calm,-,N/A,,Overcast,0,2012-10-07 11:35:00
6:55 AM,42.8,33.8,70,30.26,10.0,NW,3.5,-,N/A,,Overcast,320,2012-10-07 11:55:00
7:15 AM,42.8,33.8,70,30.26,10.0,North,6.9,-,N/A,,Overcast,350,2012-10-07 12:15:00
7:35 AM,44.6,33.8,66,30.27,10.0,North,6.9,-,N/A,,Overcast,350,2012-10-07 12:35:00
7:55 AM,44.6,33.8,66,30.27,10.0,NNW,8.1,-,N/A,,Overcast,340,2012-10-07 12:55:00
8:15 AM,44.6,33.8,66,30.26,10.0,North,4.6,-,N/A,,Overcast,10,2012-10-07 13:15:00
8:55 AM,46.4,32.0,57,30.27,10.0,North,9.2,-,N/A,,Partly Cloudy,360,2012-10-07 13:55:00
9:15 AM,46.4,32.0,57,30.28,10.0,North,11.5,-,N/A,,Clear,360,2012-10-07 14:15:00
9:35 AM,48.2,32.0,54,30.27,10.0,North,9.2,-,N/A,,Clear,10,2012-10-07 14:35:00
9:55 AM,48.2,30.2,50,30.28,10.0,North,9.2,-,N/A,,Clear,10,2012-10-07 14:55:00
10:16 AM,48.2,32.0,54,30.27,10.0,North,9.2,-,N/A,,Clear,350,2012-10-07 15:16:00
10:35 AM,48.2,30.2,50,30.27,10.0,NNE,8.1,-,N/A,,Clear,30,2012-10-07 15:35:00
10:55 AM,51.8,32.0,47,30.27,10.0,NNW,8.1,-,N/A,,Clear,330,2012-10-07 15:55:00
11:15 AM,51.8,32.0,47,30.27,10.0,North,8.1,-,N/A,,Clear,360,2012-10-07 16:15:00
11:35 AM,51.8,30.2,44,30.27,10.0,North,9.2,-,N/A,,Clear,350,2012-10-07 16:35:00
11:55 AM,53.6,32.0,44,30.27,10.0,North,6.9,-,N/A,,Clear,360,2012-10-07 16:55:00
12:16 PM,53.6,33.8,47,30.27,10.0,NW,10.4,-,N/A,,Clear,320,2012-10-07 17:16:00
12:35 PM,53.6,33.8,47,30.26,10.0,North,9.2,-,N/A,,Clear,10,2012-10-07 17:35:00
12:55 PM,55.4,32.0,41,30.25,10.0,NW,8.1,-,N/A,,Clear,320,2012-10-07 17:55:00
1:15 PM,53.6,32.0,44,30.24,10.0,North,8.1,-,N/A,,Clear,360,2012-10-07 18:15:00
1:35 PM,55.4,33.8,44,30.24,10.0,North,10.4,-,N/A,,Clear,350,2012-10-07 18:35:00
1:55 PM,55.4,33.8,44,30.23,10.0,NNW,9.2,-,N/A,,Clear,330,2012-10-07 18:55:00
2:16 PM,55.4,33.8,44,30.22,10.0,North,9.2,-,N/A,,Clear,350,2012-10-07 19:16:00
2:35 PM,55.4,32.0,41,30.21,10.0,NNW,10.4,-,N/A,,Clear,340,2012-10-07 19:35:00
2:55 PM,55.4,33.8,44,30.21,10.0,North,6.9,-,N/A,,Clear,350,2012-10-07 19:55:00
3:15 PM,57.2,33.8,41,30.21,10.0,North,10.4,-,N/A,,Clear,360,2012-10-07 20:15:00
3:35 PM,57.2,33.8,41,30.21,10.0,NNW,8.1,-,N/A,,Clear,340,2012-10-07 20:35:00
3:55 PM,55.4,33.8,44,30.20,10.0,North,6.9,-,N/A,,Clear,350,2012-10-07 20:55:00
4:15 PM,57.2,33.8,41,30.21,10.0,NW,9.2,-,N/A,,Clear,320,2012-10-07 21:15:00
4:36 PM,57.2,33.8,41,30.20,10.0,NNW,6.9,-,N/A,,Clear,330,2012-10-07 21:36:00
4:55 PM,55.4,33.8,44,30.19,10.0,North,8.1,-,N/A,,Clear,350,2012-10-07 21:55:00
5:15 PM,55.4,32.0,41,30.19,10.0,North,5.8,-,N/A,,Clear,350,2012-10-07 22:15:00
5:35 PM,55.4,32.0,41,30.19,10.0,North,4.6,-,N/A,,Clear,10,2012-10-07 22:35:00
5:55 PM,53.6,33.8,47,30.19,10.0,North,5.8,-,N/A,,Clear,10,2012-10-07 22:55:00
6:15 PM,53.6,33.8,47,30.19,10.0,North,4.6,-,N/A,,Clear,10,2012-10-07 23:15:00
7:15 PM,51.8,33.8,50,30.19,10.0,North,3.5,-,N/A,,Clear,350,2012-10-08 00:15:00
7:55 PM,51.8,35.6,54,30.19,10.0,Calm,Calm,-,N/A,,Scattered Clouds,0,2012-10-08 00:55:00
8:15 PM,51.8,35.6,54,30.19,10.0,Calm,Calm,-,N/A,,Partly Cloudy,0,2012-10-08 01:15:00
8:35 PM,51.8,35.6,54,30.20,10.0,Calm,Calm,-,N/A,,Clear,0,2012-10-08 01:35:00
8:55 PM,51.8,35.6,54,30.20,10.0,North,4.6,-,N/A,,Clear,360,2012-10-08 01:55:00
9:15 PM,51.8,35.6,54,30.21,10.0,NNW,3.5,-,N/A,,Scattered Clouds,340,2012-10-08 02:15:00
9:35 PM,-9999,-9999,N/A,30.20,10.0,NNW,3.5,-,N/A,,Clear,340,2012-10-08 02:35:00
9:55 PM,51.8,35.6,54,30.22,10.0,NNW,3.5,-,N/A,,Mostly Cloudy,340,2012-10-08 02:55:00
10:15 PM,50.0,35.6,58,30.22,10.0,Calm,Calm,-,N/A,,Mostly Cloudy,0,2012-10-08 03:15:00
10:35 PM,51.8,35.6,54,30.22,10.0,NNE,3.5,-,N/A,,Partly Cloudy,20,2012-10-08 03:35:00
10:56 PM,50.0,35.6,58,30.22,10.0,North,4.6,-,N/A,,Clear,360,2012-10-08 03:56:00
11:15 PM,50.0,35.6,58,30.22,10.0,North,4.6,-,N/A,,Scattered Clouds,360,2012-10-08 04:15:00
11:35 PM,51.8,33.8,50,30.21,10.0,NNE,5.8,-,N/A,,Overcast,20,2012-10-08 04:35:00
11:55 PM,50.0,33.8,54,30.21,10.0,NNE,4.6,-,N/A,,Overcast,30,2012-10-08 04:55:00